• Join FlightAware (Why Join?)
  • Login
  • US Flag 
06:51PM EST


 

Airport Tracker/Info


-or-


 

Live Flight TrackerFlight Track Log ✈ GJS6152 ✈ 28-Apr-2012 ✈ KBUF - KLGA

Flight Track Log - Related Links

Times and Time Zones

All times are in EDT time to prevent confusion due to time zone crossing. See the GJS6152 flight status page for this flight to view local times or setup timezone preferences in your user account.

Time Position Orientation Groundspeed Altitude Reporting Facility
EDT Latitude Longitude Course Direction KTS MPH feet Rate Location/Type
08:08AM 42.9500 -78.7500 82° East 153 176 1,400  Level Buffalo TRACON
08:10AM 42.9644 -78.6169 102° East 176 203 6,400 2,355 Climbing Cleveland Center
08:11AM 42.9481 -78.5128 100° East 247 284 8,700 2,300 Climbing Cleveland Center
08:12AM 42.9336 -78.4053 101° East 304 350 11,000 2,150 Climbing Cleveland Center
08:13AM 42.9167 -78.2811 102° East 329 379 13,000 2,050 Climbing Cleveland Center
08:14AM 42.8928 -78.1292 101° East 354 407 15,100 2,000 Climbing Cleveland Center
08:15AM 42.8706 -77.9797 101° East 386 444 17,000 1,700 Climbing Cleveland Center
08:16AM 42.8483 -77.8222 97° East 404 465 18,500 1,600 Climbing Cleveland Center
08:17AM 42.8339 -77.6583 91° East 423 487 20,200 1,410 Climbing Cleveland Center
08:19AM 42.8264 -77.2933 91° East 459 528 22,800 1,253 Climbing Boston Center
08:20AM 42.8239 -77.1006 106° East 497 572 24,000 1,150 Climbing Boston Center
08:21AM 42.7856 -76.9136 119° Southeast 503 579 25,100 1,000 Climbing Boston Center
08:22AM 42.7189 -76.7533 117° Southeast 511 588 26,000 1,008 Climbing Boston Center
08:23AM 42.6506 -76.5706 100° East 527 606 27,100 1,140 Climbing Boston Center
08:24AM 42.6242 -76.3683 101° East 538 619 28,300 950 Climbing Boston Center
08:25AM 42.5956 -76.1661 100° East 544 626 29,000 353 Climbing Boston Center
08:26AM 42.5703 -75.9786 101° East 552 635 29,000 -300 Level Boston Center
08:27AM 42.5361 -75.7314 101° East 552 635 28,400 -893 Descending Boston Center
08:28AM 42.5064 -75.5297 100° East 552 635 27,200 -1,200 Descending Boston Center
08:29AM 42.4783 -75.3256 110° East 542 624 26,000 -1,150 Descending Boston Center
08:30AM 42.4286 -75.1406 116° Southeast 542 624 24,900 -1,250 Descending Boston Center
08:31AM 42.3661 -74.9664 117° Southeast 525 604 23,500 -1,412 Descending Boston Center
08:32AM 42.3011 -74.7925 117° Southeast 520 598 22,100 -1,400 Descending Boston Center
08:33AM 42.2375 -74.6275 116° Southeast 510 587 20,700 -1,400 Descending Boston Center
08:34AM 42.1800 -74.4686 117° Southeast 487 560 19,300 -1,300 Descending Boston Center
08:35AM 42.1222 -74.3156 131° Southeast 464 534 18,100 -650 Descending Boston Center
08:36AM 42.0450 -74.1958 154° Southeast 442 509 18,000 -843 Descending Boston Center
08:37AM 41.9458 -74.1317 158° South 403 464 16,400 -1,450 Descending Boston Center
08:38AM 41.8425 -74.0758 157° South 403 464 15,100 -1,311 Descending Boston Center
08:39AM 41.7536 -74.0261 158° South 391 450 13,800 -1,450 Descending Boston Center
08:40AM 41.6461 -73.9681 158° South 391 450 12,200 -1,392 Descending Boston Center
08:41AM 41.5500 -73.9167 156° South 356 410 10,900 -1,311 Descending New York TRACON
08:42AM 41.4667 -73.8667 156° South 314 361 9,600 -1,000 Descending New York TRACON
08:43AM 41.3833 -73.8167 151° Southeast 312 359 9,000 -600 Descending New York TRACON
08:44AM 41.3167 -73.7667 151° Southeast 313 360 8,400 -842 Descending New York TRACON
08:45AM 41.2500 -73.7167 143° Southeast 307 353 7,400 -1,211 Descending New York TRACON
08:46AM 41.1833 -73.6500 163° South 303 349 6,100 -1,400 Descending New York TRACON
08:47AM 41.1000 -73.6167 169° South 298 343 4,600 -1,050 Descending New York TRACON
08:48AM 41.0333 -73.6000 201° Southwest 286 329 4,000 -300 Descending New York TRACON
08:49AM 40.9667 -73.6333 201° Southwest 256 295 4,000  Level New York TRACON
08:50AM 40.9000 -73.6667 197° South 270 311 4,000  Level New York TRACON
08:51AM 40.8167 -73.7000 237° Southwest 265 305 4,000  Level New York TRACON
08:52AM 40.7833 -73.7667 270° West 251 289 4,000  Level New York TRACON
08:53AM 40.7833 -73.8500 252° West 211 243 4,000  Level New York TRACON
08:54AM 40.7667 -73.9167 252° West 188 216 4,000 -500 Level New York TRACON
08:55AM 40.7500 -73.9833 246° West 181 208 3,000 -476 Descending New York TRACON
08:56AM 40.7333 -74.0333 131° Southeast 193 222 3,000 -50 Level New York TRACON
08:57AM 40.7000 -73.9833 72° East 192 221 2,900 -263 Descending New York TRACON
08:58AM 40.7167 -73.9167 66° East 186 214 2,500 -600 Descending New York TRACON
08:59AM 40.7333 -73.8667 66° East 158 182 1,700 -727 Descending New York TRACON